Location: Newark
(33.6439°N, 114.9881°W)
Time: 06:27:40
(UTC+00:00)

A-11 Canister half - Pass Details

Date: 26 August 2019
Orbit: 1527 x 1682 km, 47.3° (Epoch: 15 September)

Event Time Altitude Azimuth Distance (km) Brightness Sun altitude
Rises 14:59:14 0° 173° (S) 4,743 11.7 21.8°
Reaches altitude 10° 15:04:18 10° 151° (SSE) 3,796 11.6 22.8°
Maximum altitude 15:08:52 14° 121° (ESE) 3,488 12.2 23.8°
Drops below altitude 10° 15:13:29 10° 93° (E) 3,863 13.1 24.7°
Sets 15:18:40 0° 71° (ENE) 4,885 12.7 25.8°
